| time (UTC) | temp F | wind direction | speed MPH | gust MPH | rain 1hr in | rain 24hr in | rain mn in | humidity % | barometer mb |
| 20260504234016 | 70 | 293 | 12.0 | 23.0 | 0.00 | 0.00 | 0.00 | 43 | 1013.5 |
| 20260504233056 | 73 | 270 | 12.0 | 22.0 | 0.00 | 0.00 | 0.00 | 34 | 1013.4 |
| 20260504232016 | 75 | 293 | 11.0 | 17.0 | 0.00 | 0.00 | 0.00 | 26 | 1013.3 |
| 20260504231056 | 76 | 270 | 13.0 | 25.0 | 0.00 | 0.00 | 0.00 | 24 | 1013.3 |
| 20260504230016 | 77 | 270 | 9.0 | 15.0 | 0.00 | 0.00 | 0.00 | 22 | 1013.2 |
| 20260504225016 | 77 | 293 | 6.0 | 12.0 | 0.00 | 0.00 | 0.00 | 21 | 1013.0 |
| 20260504224036 | 78 | 270 | 8.0 | 14.0 | 0.00 | 0.00 | 0.00 | 20 | 1012.9 |
| 20260504223016 | 79 | 248 | 9.0 | 20.0 | 0.00 | 0.00 | 0.00 | 19 | 1012.7 |
| 20260504222016 | 80 | 270 | 11.0 | 21.0 | 0.00 | 0.00 | 0.00 | 19 | 1012.8 |
| 20260504221016 | 80 | 293 | 10.0 | 17.0 | 0.00 | 0.00 | 0.00 | 19 | 1012.9 |
| 20260504220016 | 81 | 270 | 8.0 | 16.0 | 0.00 | 0.00 | 0.00 | 19 | 1013.2 |
| 20260504215016 | 81 | 270 | 8.0 | 13.0 | 0.00 | 0.00 | 0.00 | 18 | 1012.9 |
| 20260504214016 | 81 | 248 | 8.0 | 12.0 | 0.00 | 0.00 | 0.00 | 17 | 1012.9 |
| 20260504213016 | 82 | 248 | 10.0 | 22.0 | 0.00 | 0.00 | 0.00 | 17 | 1012.6 |
| 20260504212016 | 82 | 293 | 7.0 | 14.0 | 0.00 | 0.00 | 0.00 | 17 | 1012.7 |
| 20260504211036 | 81 | 270 | 4.0 | 9.0 | 0.00 | 0.00 | 0.00 | 18 | 1012.9 |
| 20260504210016 | 81 | 180 | 5.0 | 11.0 | 0.00 | 0.00 | 0.00 | 19 | 1013.0 |
| 20260504205056 | 81 | 225 | 5.0 | 9.0 | 0.00 | 0.00 | 0.00 | 19 | 1013.2 |
| 20260504204016 | 81 | 293 | 6.0 | 11.0 | 0.00 | 0.00 | 0.00 | 19 | 1013.2 |
| 20260504203016 | 80 | 315 | 3.0 | 8.0 | 0.00 | 0.00 | 0.00 | 20 | 1013.3 |
| 20260504202016 | 80 | 248 | 8.0 | 13.0 | 0.00 | 0.00 | 0.00 | 20 | 1013.6 |
| 20260504201016 | 80 | 248 | 7.0 | 15.0 | 0.00 | 0.00 | 0.00 | 20 | 1013.5 |
| 20260504200016 | 80 | 270 | 2.0 | 6.0 | 0.00 | 0.00 | 0.00 | 22 | 1013.4 |
| 20260504195016 | 79 | 225 | 4.0 | 8.0 | 0.00 | 0.00 | 0.00 | 22 | 1013.3 |
| 20260504194035 | 79 | 270 | 4.0 | 7.0 | 0.00 | 0.00 | 0.00 | 22 | 1013.4 |
| 20260504193035 | 79 | 225 | 2.0 | 7.0 | 0.00 | 0.00 | 0.00 | 23 | 1013.4 |
| 20260504192016 | 79 | 180 | 4.0 | 7.0 | 0.00 | 0.00 | 0.00 | 23 | 1013.6 |
| 20260504191035 | 78 | 203 | 2.0 | 5.0 | 0.00 | 0.00 | 0.00 | 23 | 1013.7 |
| 20260504190015 | 78 | 248 | 3.0 | 10.0 | 0.00 | 0.00 | 0.00 | 24 | 1013.7 |
| 20260504185015 | 77 | 225 | 5.0 | 9.0 | 0.00 | 0.00 | 0.00 | 24 | 1014.0 |
| 20260504184015 | 77 | 248 | 7.0 | 12.0 | 0.00 | 0.00 | 0.00 | 23 | 1014.2 |
| 20260504183015 | 77 | 270 | 5.0 | 10.0 | 0.00 | 0.00 | 0.00 | 23 | 1014.2 |
| 20260504182016 | 77 | 248 | 6.0 | 11.0 | 0.00 | 0.00 | 0.00 | 23 | 1014.2 |
| 20260504181035 | 77 | 270 | 6.0 | 11.0 | 0.00 | 0.00 | 0.00 | 24 | 1014.4 |
| 20260504180015 | 76 | 248 | 5.0 | 11.0 | 0.00 | 0.00 | 0.00 | 25 | 1014.3 |
| 20260504175016 | 76 | 248 | 6.0 | 12.0 | 0.00 | 0.00 | 0.00 | 25 | 1014.4 |
| 20260504174017 | 76 | 225 | 6.0 | 10.0 | 0.00 | 0.00 | 0.00 | 25 | 1014.4 |
| 20260504173017 | 76 | 225 | 8.0 | 14.0 | 0.00 | 0.00 | 0.00 | 24 | 1014.6 |
| 20260504172016 | 76 | 225 | 7.0 | 15.0 | 0.00 | 0.00 | 0.00 | 25 | 1014.6 |
| 20260504171017 | 76 | 248 | 8.0 | 15.0 | 0.00 | 0.00 | 0.00 | 24 | 1014.4 |
| 20260504151017 | 74 | 293 | 5.0 | 10.0 | 0.00 | 0.00 | 0.00 | 32 | 1014.8 |
| 20260504141016 | 71 | 293 | 5.0 | 11.0 | 0.00 | 0.00 | 0.00 | 33 | 1014.5 |
| 20260504081016 | 67 | 0.0 | 1.0 | 0.00 | 0.00 | 0.00 | 35 | 1012.8 | |
| 20260504050016 | 72 | 225 | 4.0 | 10.0 | 0.00 | 0.00 | 0.00 | 26 | 1013.5 |
| 20260504045036 | 72 | 270 | 1.0 | 6.0 | 0.00 | 0.00 | 0.00 | 26 | 1013.6 |
| 20260504044016 | 72 | 0.0 | 0.0 | 0.00 | 0.00 | 0.00 | 25 | 1013.6 | |
| 20260504043036 | 73 | 0.0 | 0.0 | 0.00 | 0.00 | 0.00 | 24 | 1013.3 | |
| 20260504042016 | 74 | 0.0 | 0.0 | 0.00 | 0.00 | 0.00 | 23 | 1013.5 | |
| 20260504041016 | 75 | 293 | 1.0 | 4.0 | 0.00 | 0.00 | 0.00 | 22 | 1013.2 |
| 20260504040016 | 75 | 270 | 1.0 | 4.0 | 0.00 | 0.00 | 0.00 | 22 | 1012.7 |
| 20260504035016 | 76 | 270 | 4.0 | 8.0 | 0.00 | 0.00 | 0.00 | 21 | 1012.7 |
| 20260504034016 | 76 | 248 | 3.0 | 6.0 | 0.00 | 0.00 | 0.00 | 21 | 1012.5 |
| 20260504033036 | 76 | 248 | 4.0 | 7.0 | 0.00 | 0.00 | 0.00 | 20 | 1012.2 |
| 20260504032016 | 76 | 248 | 2.0 | 8.0 | 0.00 | 0.00 | 0.00 | 19 | 1012.0 |
| 20260504031016 | 78 | 203 | 1.0 | 4.0 | 0.00 | 0.00 | 0.00 | 17 | 1011.7 |
| 20260504030056 | 78 | 248 | 2.0 | 5.0 | 0.00 | 0.00 | 0.00 | 17 | 1011.5 |
| 20260504025016 | 79 | 248 | 5.0 | 12.0 | 0.00 | 0.00 | 0.00 | 16 | 1011.3 |
| 20260504024016 | 79 | 248 | 4.0 | 8.0 | 0.00 | 0.00 | 0.00 | 15 | 1011.1 |
| 20260504023016 | 80 | 270 | 5.0 | 11.0 | 0.00 | 0.00 | 0.00 | 15 | 1010.8 |
| 20260504022016 | 80 | 225 | 1.0 | 6.0 | 0.00 | 0.00 | 0.00 | 14 | 1010.5 |
| 20260504021016 | 81 | 0.0 | 2.0 | 0.00 | 0.00 | 0.00 | 14 | 1010.7 | |
| 20260504020036 | 82 | 225 | 2.0 | 9.0 | 0.00 | 0.00 | 0.00 | 13 | 1010.6 |
| 20260504015016 | 82 | 225 | 6.0 | 11.0 | 0.00 | 0.00 | 0.00 | 13 | 1010.6 |
| 20260504014016 | 83 | 225 | 8.0 | 14.0 | 0.00 | 0.00 | 0.00 | 13 | 1010.6 |
| 20260504012016 | 85 | 225 | 8.0 | 16.0 | 0.00 | 0.00 | 0.00 | 13 | 1010.6 |
| 20260504011056 | 85 | 225 | 8.0 | 15.0 | 0.00 | 0.00 | 0.00 | 12 | 1010.8 |
| 20260504010016 | 85 | 225 | 9.0 | 18.0 | 0.00 | 0.00 | 0.00 | 13 | 1010.8 |
| 20260504005056 | 86 | 225 | 8.0 | 17.0 | 0.00 | 0.00 | 0.00 | 12 | 1010.8 |
| 20260504004016 | 86 | 225 | 12.0 | 21.0 | 0.00 | 0.00 | 0.00 | 13 | 1010.8 |
| 20260504003016 | 87 | 248 | 12.0 | 20.0 | 0.00 | 0.00 | 0.00 | 13 | 1010.8 |
| 20260504002016 | 87 | 225 | 11.0 | 20.0 | 0.00 | 0.00 | 0.00 | 13 | 1010.7 |
| 20260504001036 | 88 | 225 | 12.0 | 21.0 | 0.00 | 0.00 | 0.00 | 13 | 1010.6 |
| 20260504000036 | 89 | 225 | 11.0 | 20.0 | 0.00 | 0.00 | 0.00 | 12 | 1010.9 |
| 20260503235016 | 89 | 225 | 9.0 | 14.0 | 0.00 | 0.00 | 0.00 | 13 | 1010.7 |